Theta_e
314 314 314 314 314 313 313 312 312 311 310 309 305 307 305 303 301 312 317 314 308 300 294 302 298 293 295 300 297 298 297 296 297 295 296 294 296 295 295 294 293 294 292 292 291 291 289 291 289 291 292 292 294 295 296 297 296 294 291 294 294 302 288 284 285 288 291 292 296 299 299 297 294 294 296 294 291 292 291 290 293 290 292 288 288 289 292
314 314 314 314 313 312 313 312 312 311 310 306 305 303 303 303 304 308 315 311 305 296 291 291 292 295 297 297 295 297 296 296 295 295 296 294 293 293 294 296 296 294 296 294 291 293 286 293 291 289 293 290 297 297 296 297 294 294 292 290 294 286 288 284 280 279 283 285 291 294 297 295 291 290 293 294 294 294 294 295 296 290 292 291 289 285 291
314 314 314 313 313 313 312 312 312 312 311 310 304 303 304 303 307 307 310 310 302 294 296 293 291 294 294 294 293 294 295 296 296 295 294 296 296 295 293 296 296 295 296 294 295 295 292 290 294 293 293 293 298 298 297 298 295 300 303 303 298 289 289 283 277 276 274 275 276 282 284 287 290 292 292 293 292 291 290 286 289 284 291 291 289 287 295
314 314 314 313 313 313 312 312 312 312 311 310 307 305 304 301 294 299 299 301 299 298 302 297 295 293 294 293 294 295 293 295 297 297 296 297 298 296 297 296 297 294 294 292 292 292 295 292 291 291 291 293 296 297 297 297 298 304 306 304 297 291 291 287 283 281 280 281 285 290 292 289 286 289 290 291 292 293 292 291 289 285 289 288 290 295 294
314 314 314 313 313 312 313 312 312 312 310 310 305 306 305 304 294 296 293 301 298 295 296 296 297 293 296 288 295 292 294 295 296 299 294 297 297 296 296 295 293 293 293 292 291 293 293 294 293 292 292 296 296 298 297 297 304 305 302 304 295 290 285 288 288 287 286 288 288 289 291 287 289 289 289 291 291 292 291 287 285 292 288 283 292 295 292
314 314 314 314 313 313 313 312 312 311 310 310 309 302 304 294 300 303 304 294 290 290 293 298 298 299 297 293 297 293 293 293 291 296 297 298 298 293 295 295 295 294 293 292 289 291 291 291 289 294 294 293 295 294 297 295 302 301 296 300 293 289 285 289 290 287 289 289 289 291 290 290 290 290 290 289 291 291 289 290 292 292 288 286 292 294 293
314 314 314 315 313 313 313 313 312 311 310 310 308 301 303 303 303 303 307 296 299 298 298 300 297 297 299 296 295 292 293 291 294 294 294 295 294 295 288 291 293 294 295 292 289 290 285 287 292 292 291 292 292 290 293 297 297 296 294 294 296 288 284 290 290 287 288 289 289 291 289 289 289 290 291 291 291 290 291 291 292 291 290 293 294 294 296
314 314 314 315 314 314 314 313 312 311 310 311 308 305 300 299 299 298 304 304 298 298 298 297 296 293 299 292 293 295 293 292 294 296 294 291 292 296 292 292 293 295 295 293 290 293 293 292 289 295 293 290 293 290 292 289 294 294 294 294 295 287 287 293 290 286 286 288 291 290 290 289 288 289 290 291 292 291 292 291 292 295 293 295 296 295 296
314 314 314 315 314 314 314 313 312 311 311 310 306 304 306 306 307 306 300 296 299 299 297 295 293 290 292 290 295 296 295 294 296 296 298 293 293 295 293 294 294 296 295 295 295 298 296 296 295 295 295 288 294 290 290 294 289 294 293 293 296 292 285 291 288 282 283 288 288 289 290 290 288 287 289 290 290 289 290 290 292 291 290 293 293 293 300
314 314 314 315 315 314 314 313 313 310 311 309 305 302 308 307 309 309 302 295 306 294 296 295 292 289 294 298 296 296 294 297 297 291 297 298 298 297 296 296 293 293 293 294 296 299 298 297 297 296 295 295 295 294 293 294 292 291 291 294 291 290 287 284 284 281 281 287 289 288 288 286 283 285 287 290 291 292 293 294 298 301 301 296 292 298 306
314 314 314 314 315 315 315 314 314 312 309 306 306 304 305 304 302 304 301 293 294 294 294 293 292 296 297 298 296 298 297 297 298 289 291 298 298 300 300 298 293 290 292 296 299 300 299 299 299 297 296 295 295 295 294 297 296 296 292 292 292 292 289 285 287 280 281 287 288 288 283 276 278 291 293 292 291 292 290 294 304 307 308 305 308 311 312
313 314 314 314 315 315 315 315 314 311 309 306 307 305 308 308 305 303 297 293 293 295 293 292 293 298 297 298 299 297 297 298 297 300 295 297 298 299 300 299 295 289 299 301 302 302 301 301 301 299 298 297 296 296 298 297 296 300 296 294 290 292 290 285 288 283 279 285 286 282 275 278 290 294 295 295 294 294 294 302 305 306 306 307 308 307 308
313 314 314 314 315 315 315 315 315 312 311 308 306 304 309 310 305 301 298 294 292 295 291 295 299 300 299 299 297 298 298 299 302 303 301 300 299 300 301 299 298 300 305 302 303 301 296 293 292 294 294 297 298 298 297 297 297 298 295 295 291 288 287 289 287 284 284 281 279 271 276 288 293 293 295 297 297 301 301 301 303 305 306 305 305 307 308
313 313 313 314 314 315 315 316 315 314 311 309 307 305 308 309 304 300 298 294 296 298 297 294 296 297 298 298 298 299 299 298 298 300 298 302 300 300 303 304 303 305 303 303 300 296 290 288 285 286 287 288 287 288 294 298 298 298 297 298 297 293 289 288 282 286 277 280 279 280 288 288 289 290 293 299 295 296 296 291 297 304 307 306 305 306 307
313 313 313 314 314 315 315 315 315 315 313 309 307 308 308 309 308 304 304 298 295 297 295 290 295 298 299 299 299 293 294 294 295 294 301 304 304 306 303 305 306 305 304 299 294 294 290 287 282 281 283 279 276 279 291 289 295 299 298 297 297 293 288 288 284 284 285 281 278 278 278 277 283 293 300 303 301 302 303 297 295 305 305 307 307 304 304
313 313 313 314 314 314 315 315 315 315 313 309 308 306 309 311 311 308 303 299 295 288 294 300 302 300 295 297 300 296 294 292 294 294 294 297 302 304 307 307 306 305 304 301 296 292 291 285 283 281 278 281 287 286 281 289 288 294 296 297 296 296 294 290 286 284 284 282 278 275 273 280 292 294 298 299 301 303 303 295 291 303 304 306 306 305 305
313 313 313 313 314 314 314 315 315 314 313 310 306 305 306 312 310 306 302 300 298 294 300 306 305 301 295 294 297 295 296 293 295 290 290 292 298 303 305 307 305 305 303 296 293 290 286 285 285 280 282 289 283 279 285 280 279 285 292 293 292 289 288 287 285 284 284 282 279 278 282 279 291 296 298 299 301 303 295 282 286 301 304 305 306 305 305
312 313 313 313 314 314 314 315 315 315 314 312 308 304 306 312 312 308 305 300 297 295 301 309 303 295 294 294 294 300 301 298 297 297 293 295 299 300 302 304 299 305 304 293 293 286 286 284 279 280 278 291 291 288 274 278 278 279 283 286 284 284 286 285 283 284 286 286 283 284 285 293 297 297 299 299 303 299 284 280 294 301 302 305 306 305 306
312 313 313 314 313 314 314 314 315 315 315 310 309 307 308 312 313 310 305 301 298 296 304 309 310 305 305 306 302 303 301 298 296 292 291 290 295 302 303 304 304 293 298 291 289 286 284 284 287 285 280 283 288 279 284 279 276 284 288 281 281 282 285 287 286 283 282 283 282 282 286 293 297 299 299 301 297 285 283 296 301 302 303 306 307 305 306
312 313 313 313 313 313 314 314 314 315 315 311 308 304 308 311 314 310 303 299 299 297 302 305 309 306 310 306 299 297 297 299 297 293 291 288 296 301 293 292 294 298 294 293 287 288 282 281 282 288 284 283 284 289 282 281 287 283 284 288 283 284 281 278 281 284 285 283 283 282 278 292 299 298 296 300 289 291 297 298 301 306 306 306 306 306 307
312 313 313 313 313 313 313 314 314 315 315 314 309 304 306 312 314 314 310 304 298 295 298 309 311 307 308 307 308 308 304 298 297 296 295 294 298 294 285 286 290 293 289 288 281 284 287 284 287 286 288 285 288 287 279 279 281 290 292 289 287 291 280 280 282 287 279 280 279 281 290 292 300 297 290 294 298 300 301 301 299 303 304 305 305 305 306
312 312 313 313 313 313 313 314 314 314 315 314 310 306 303 311 317 318 315 308 301 299 301 307 310 309 311 312 312 312 310 309 308 305 298 296 300 296 295 298 297 296 296 295 291 290 291 289 291 288 285 286 290 282 284 279 276 282 294 290 280 291 285 283 280 287 285 282 285 291 293 296 298 298 298 299 301 304 304 303 302 301 302 305 304 304 305
312 312 313 313 313 313 313 313 314 314 314 315 310 305 304 307 311 316 313 305 305 307 310 309 310 311 314 315 317 317 316 316 311 307 302 296 296 299 297 297 298 303 300 296 290 287 288 288 285 288 287 287 284 282 285 283 278 284 282 291 287 293 294 293 290 287 293 294 295 296 296 296 296 298 300 300 303 304 304 302 300 302 303 304 303 304 305
312 312 312 313 313 313 313 313 313 314 314 314 312 305 303 307 309 311 310 308 302 301 304 306 304 302 306 309 313 315 316 315 315 310 310 305 294 295 301 302 304 303 300 299 299 293 292 292 290 291 284 288 290 283 280 279 281 285 286 286 290 293 294 292 286 290 287 283 297 295 294 295 296 296 299 300 300 300 301 300 300 301 302 303 304 304 305
312 312 312 312 313 313 313 313 313 313 315 314 312 312 310 307 308 313 309 301 299 300 296 299 302 308 313 315 315 313 313 316 317 311 310 307 303 298 296 303 307 300 299 301 302 298 296 291 292 290 284 292 292 283 288 284 284 290 282 283 286 286 294 289 289 289 288 288 292 293 294 295 296 296 296 296 297 298 299 300 301 301 303 303 303 304 305
312 312 312 312 313 313 313 313 313 313 314 314 313 305 304 305 309 311 310 309 307 305 300 298 303 312 314 312 310 313 316 315 314 312 310 309 308 307 307 308 305 308 306 306 301 298 293 294 293 291 288 289 294 286 286 289 285 290 287 285 288 290 295 283 289 287 289 292 293 294 294 294 296 298 298 298 298 297 298 299 300 301 301 302 303 305 305
312 312 312 312 312 313 313 313 313 313 313 313 312 308 306 307 310 308 307 309 303 298 299 296 301 307 311 308 312 314 315 315 314 310 310 311 310 310 310 307 304 302 303 302 303 299 297 294 292 291 292 291 295 291 291 291 290 287 285 288 294 292 286 288 287 284 284 284 287 291 287 287 292 295 296 297 298 298 298 300 300 301 301 302 302 303 305
311 312 312 312 312 313 312 313 313 313 313 313 312 310 309 307 308 311 312 312 306 297 297 298 299 304 310 307 313 313 314 315 314 312 308 309 309 308 307 307 305 303 301 300 297 296 294 292 292 296 297 297 293 290 294 294 293 289 288 289 294 289 288 288 285 284 283 289 292 292 293 293 294 296 297 298 299 300 299 300 300 301 302 303 302 302 302
311 312 312 312 312 312 312 312 312 313 313 311 311 309 308 308 310 311 312 314 312 307 305 305 306 303 297 304 312 310 312 313 313 312 309 309 309 308 307 307 305 305 305 302 300 298 295 296 299 296 294 298 294 290 293 286 284 284 288 293 294 294 294 293 292 290 291 293 294 295 293 292 295 298 299 299 300 300 301 301 302 302 302 303 303 303 302
311 312 312 312 312 312 312 312 312 312 313 311 308 305 300 305 310 310 312 313 313 311 303 300 296 300 308 309 307 310 311 313 312 313 311 307 308 308 310 306 306 308 306 302 301 297 299 298 299 301 303 304 296 295 290 287 285 287 292 294 296 295 296 296 296 293 290 294 296 296 295 297 298 299 300 300 301 303 301 301 302 303 303 305 304 304 305
311 311 312 312 312 312 312 312 312 313 313 309 306 301 297 297 306 316 314 316 317 312 307 305 300 306 303 308 308 307 309 311 309 308 309 311 311 312 313 312 310 309 303 304 301 301 302 298 299 299 303 303 300 294 289 287 284 285 293 295 296 296 296 295 297 297 296 297 298 299 299 299 299 299 299 300 300 301 302 303 304 307 306 307 306 306 306
311 311 311 311 311 311 312 312 312 313 311 307 304 304 303 305 309 311 311 314 317 310 305 300 300 297 298 303 308 314 312 311 313 315 309 311 308 310 309 310 306 310 307 302 304 300 298 299 299 300 299 305 303 297 294 288 287 288 292 295 297 298 298 297 297 298 298 299 298 297 296 296 298 296 295 299 300 302 302 302 304 304 307 306 306 306 307
311 311 311 311 311 311 311 312 312 312 309 310 312 311 311 311 310 311 312 313 313 310 310 303 297 300 296 298 306 309 312 310 308 307 304 310 306 308 305 309 308 307 313 304 297 296 302 300 300 297 300 303 298 297 292 289 291 293 294 298 297 298 298 299 299 299 299 300 300 295 292 293 294 297 299 300 301 302 302 303 303 304 303 303 303 303 304
310 311 311 311 311 311 311 311 312 312 312 308 304 306 310 312 311 311 312 314 312 312 310 302 298 296 297 306 300 305 312 303 302 304 299 307 307 304 301 304 304 301 305 301 302 301 303 302 297 299 302 298 299 294 288 292 295 295 296 297 298 298 299 299 299 298 299 300 301 300 299 298 299 299 299 298 299 301 304 303 302 300 300 301 301 302 303
311 311 311 312 311 311 311 311 309 308 304 306 306 309 312 314 312 313 313 312 305 303 302 303 303 297 296 297 297 300 313 306 301 304 299 302 311 302 304 299 302 298 300 309 302 300 298 298 301 297 294 300 296 288 291 294 295 296 296 296 297 298 297 296 297 299 299 300 300 300 300 300 298 296 295 297 298 299 301 301 301 300 299 299 301 302 304
311 311 312 312 311 312 311 310 309 306 304 304 308 317 319 318 316 314 315 318 312 305 302 303 302 297 298 293 292 299 313 305 307 305 305 305 303 307 304 302 295 300 307 302 298 301 298 304 300 291 300 292 290 291 294 297 296 296 296 297 298 298 297 297 297 299 299 299 300 300 300 299 297 296 295 297 298 298 300 300 299 300 299 300 300 302 303
310 311 312 312 311 309 306 307 310 308 308 314 317 320 321 319 318 318 315 312 315 315 305 302 298 298 299 297 299 304 305 296 304 301 304 300 298 305 302 299 293 300 301 299 298 296 300 307 299 291 291 289 292 297 297 298 298 297 297 298 299 300 299 298 300 299 298 298 299 299 298 297 297 296 295 296 297 299 299 299 299 299 298 299 300 301 303
311 311 310 308 308 306 307 308 310 312 318 318 318 312 309 311 304 308 309 305 310 311 306 305 299 301 304 299 295 306 304 300 304 298 299 304 298 297 303 300 299 300 291 296 299 304 299 299 295 290 290 297 298 299 299 299 300 300 300 300 300 300 300 300 301 299 296 295 295 296 297 296 295 294 295 296 297 298 298 300 301 301 301 301 302 303 303
310 310 309 310 307 304 309 313 316 318 314 314 314 308 304 307 306 303 303 305 308 302 307 303 299 303 301 298 299 307 304 301 299 299 293 302 297 292 299 291 297 298 289 292 294 303 292 292 294 292 289 294 294 297 301 301 301 301 302 301 301 301 301 300 301 299 297 296 296 297 296 294 292 294 295 297 298 300 300 300 300 301 302 302 302 303 303
307 307 309 309 307 311 315 315 318 316 313 307 308 305 302 306 298 293 305 297 297 302 303 297 304 302 303 300 299 299 307 301 295 294 296 300 305 294 300 296 297 295 287 287 292 301 289 284 289 288 288 293 295 299 301 301 301 301 301 301 302 302 301 301 302 302 299 298 298 298 298 297 297 297 296 297 298 298 299 300 300 301 302 302 304 303 302
307 308 311 311 312 312 315 313 313 312 308 303 305 307 304 295 303 304 302 296 294 297 305 302 304 302 307 307 304 298 308 311 306 306 301 297 305 303 297 292 300 290 286 285 296 298 294 288 285 285 288 293 296 300 301 301 301 302 301 301 302 302 302 302 302 303 301 300 300 299 299 300 300 298 298 299 299 299 300 301 301 301 302 301 301 302 304
308 307 307 308 308 310 311 311 309 307 307 309 302 291 294 299 303 301 302 294 295 301 302 304 299 300 301 305 304 304 304 309 306 305 300 295 302 297 294 296 297 289 286 295 300 296 291 283 282 283 291 295 299 300 301 300 302 301 301 302 304 302 302 301 301 301 301 300 299 299 299 299 298 298 298 298 299 299 300 301 302 301 302 302 303 303 304
309 310 308 305 308 308 310 298 307 308 293 292 292 290 295 290 294 294 298 304 310 303 304 311 309 311 309 310 305 307 304 307 302 301 299 293 300 300 293 290 292 286 291 299 295 290 285 281 281 287 293 296 299 300 300 301 302 302 301 302 302 303 302 301 300 300 301 301 300 299 299 299 299 299 300 300 300 301 301 302 302 302 302 302 302 303 304
309 310 307 307 303 307 306 289 306 303 294 290 288 285 290 291 295 298 297 298 302 302 304 302 303 303 299 304 301 301 304 305 307 304 300 300 296 291 289 286 288 296 301 293 290 282 284 288 291 293 296 299 302 301 301 302 301 301 301 302 302 302 302 301 300 300 300 301 301 301 300 299 299 299 301 299 299 299 300 301 302 303 303 302 302 302 303
305 304 300 297 294 299 293 286 300 294 288 291 294 295 296 293 295 296 296 304 304 301 305 305 304 301 301 303 303 303 302 299 306 298 292 296 292 292 289 286 292 296 291 286 286 287 287 288 293 296 298 299 301 303 304 302 302 301 301 301 302 301 301 300 299 299 299 300 299 300 299 299 299 298 298 299 299 299 299 299 301 302 301 302 302 302 303
302 293 292 292 291 290 289 287 288 285 293 299 299 299 299 301 299 299 306 310 304 304 303 304 303 304 302 302 297 296 301 301 294 295 298 295 289 285 293 299 297 290 288 286 281 280 284 288 293 296 300 302 303 304 303 303 303 302 302 301 301 301 300 300 299 299 300 300 300 300 300 300 298 298 297 298 299 300 300 300 301 301 301 301 301 302 302
300 306 298 293 291 291 299 289 290 295 299 301 303 305 304 303 305 306 307 308 305 306 306 306 304 305 300 299 300 300 301 300 295 296 295 289 288 291 298 291 285 287 281 279 281 285 288 292 295 297 301 302 304 305 304 304 304 302 302 302 302 300 300 300 300 300 300 300 300 299 299 299 299 299 298 297 298 299 302 302 301 302 302 301 302 302 302
294 298 299 291 287 290 291 296 304 305 305 305 305 307 308 308 305 303 306 308 307 306 304 303 301 299 298 304 301 294 296 296 294 293 297 293 294 290 283 287 286 287 286 285 287 292 293 295 296 298 301 304 304 304 303 303 302 301 302 302 301 300 300 300 300 300 300 300 299 298 299 300 300 299 298 298 299 299 300 300 301 302 302 301 302 302 302
307 298 290 288 296 299 298 300 302 300 303 305 306 306 306 304 304 305 307 308 306 304 305 303 301 299 294 297 295 293 290 294 287 285 294 291 284 281 283 280 283 281 290 293 292 294 294 297 300 301 302 303 304 304 303 303 303 302 303 302 301 301 301 301 300 301 302 301 300 300 300 300 300 300 299 299 298 298 299 300 300 301 302 302 301 301 301
299 296 302 296 298 298 301 303 303 299 301 302 303 303 304 303 303 305 308 305 305 305 304 303 304 297 294 295 286 288 289 293 292 289 288 284 286 288 286 281 285 285 289 293 293 294 297 298 300 300 301 302 303 303 303 304 305 304 303 302 302 301 301 301 301 301 301 300 300 300 301 301 298 298 298 297 298 300 300 300 300 299 300 302 301 300 301
304 297 295 304 300 299 302 297 297 298 299 299 301 302 303 302 302 303 308 306 305 302 298 294 294 292 286 284 284 283 286 295 291 287 286 286 291 288 285 285 288 291 293 296 296 297 298 299 299 299 300 301 303 303 303 304 305 304 304 303 303 302 302 302 301 301 301 302 303 306 300 299 299 300 300 300 300 298 298 301 301 299 299 300 301 300 301
295 294 297 304 307 305 305 305 306 303 303 303 303 304 306 303 304 306 309 306 303 298 294 297 293 286 284 285 289 292 295 291 287 288 285 289 293 288 288 289 291 294 295 294 295 297 300 300 301 301 300 301 303 304 303 305 305 305 304 304 303 302 302 301 301 301 301 301 301 300 301 302 303 303 302 300 298 298 296 297 300 300 301 300 301 301 300
Wind_Speed
20 19 20 20 21 22 23 22 22 21 21 9 8 4 4 5 3 9 9 4 3 4 4 4 3 2 3 5 9 5 5 4 7 6 7 4 6 3 7 6 4 10 5 5 5 6 4 5 6 3 6 8 6 4 8 7 7 3 4 3 6 7 3 6 6 8 8 3 6 6 14 9 8 8 9 10 10 9 6 6 4 3 7 6 7 3 2
20 19 19 20 21 22 23 21 20 18 17 4 6 2 2 2 3 8 6 2 5 8 6 4 7 5 8 11 5 5 5 7 5 4 6 4 4 7 4 4 8 5 8 6 4 6 3 6 5 4 3 4 6 11 9 9 4 5 1 1 6 2 1 3 4 7 12 6 5 7 6 11 5 6 8 9 8 10 9 4 3 1 3 3 2 5 4
19 19 19 19 21 22 23 22 20 18 15 7 0 2 2 3 3 3 7 7 6 5 1 3 4 6 7 4 5 4 3 4 5 4 6 4 5 2 6 8 5 5 4 7 7 9 6 1 6 3 4 3 6 10 10 10 5 6 6 9 2 4 1 3 2 0 3 7 4 6 11 12 10 5 10 9 9 13 10 6 6 2 4 5 0 4 6
18 19 19 20 21 22 23 23 22 21 18 9 2 1 2 4 3 4 6 6 6 4 2 4 5 4 4 6 6 4 2 3 9 8 7 6 7 7 3 4 7 8 8 8 9 8 7 6 2 4 3 2 3 5 6 7 5 9 11 8 2 0 1 2 2 3 5 4 4 3 7 8 8 13 9 10 9 8 6 2 2 2 5 8 6 1 11
18 19 19 19 21 22 23 24 24 24 20 9 4 2 2 1 4 3 6 6 8 5 5 5 6 3 2 4 3 9 10 5 4 12 2 7 4 3 7 6 5 5 6 4 5 6 6 6 7 6 4 2 1 4 6 6 10 13 7 10 2 2 2 3 2 4 5 7 7 6 6 10 11 12 12 9 8 9 8 5 6 3 7 9 4 4 11
19 20 20 19 21 22 23 24 25 25 24 8 2 4 2 3 2 2 1 2 4 5 6 8 9 8 7 4 3 7 9 10 6 5 7 5 10 4 3 8 9 8 7 3 3 5 3 4 4 3 4 4 8 6 7 4 8 10 3 4 2 1 0 2 2 4 4 4 4 6 7 8 10 12 9 10 9 9 9 6 6 5 3 8 9 9 10
19 19 20 19 19 21 22 23 24 26 25 12 3 5 4 2 1 1 4 2 5 3 5 10 10 10 5 2 6 7 8 7 4 3 3 3 4 5 4 7 4 6 6 5 1 2 3 4 2 2 4 3 3 3 3 2 4 3 2 2 1 1 0 2 3 5 6 6 7 7 10 9 9 8 9 8 8 10 11 12 8 7 7 8 12 9 8
18 18 18 18 18 20 20 21 23 25 24 9 9 7 3 5 3 5 5 2 2 6 5 4 9 8 7 3 6 4 6 7 6 3 4 3 5 6 6 5 8 4 5 4 3 2 3 1 2 1 2 6 2 2 0 2 2 1 0 0 1 2 1 4 2 3 4 6 6 7 9 10 11 9 10 12 9 9 11 11 10 8 7 6 7 4 4
18 17 17 17 17 18 19 19 21 23 18 6 6 3 4 2 0 1 2 4 3 3 3 6 7 4 6 5 3 3 5 4 3 2 4 5 2 2 4 4 4 3 5 5 3 2 3 3 2 1 1 1 2 1 3 1 4 2 2 0 1 1 2 1 1 3 4 2 6 9 11 13 11 7 7 10 10 8 7 8 5 7 9 9 11 5 2
17 17 17 17 16 17 18 17 19 20 15 5 2 5 4 1 1 1 1 3 3 2 2 3 4 5 1 1 3 2 4 3 3 2 4 4 4 4 4 3 5 3 6 3 0 1 1 3 4 3 4 3 4 3 3 2 2 1 2 0 1 1 0 2 1 2 3 2 5 9 9 10 11 4 3 3 7 5 9 11 8 6 4 1 3 5 5
16 16 16 15 15 16 17 16 15 16 10 7 4 3 4 5 4 5 4 3 4 3 4 4 6 1 1 6 3 4 3 4 2 3 1 3 3 2 1 2 3 3 3 3 3 2 3 3 5 3 3 3 4 5 4 3 1 1 1 1 1 3 3 1 0 0 1 4 7 6 7 5 7 0 9 6 10 14 13 9 4 6 6 2 3 2 4
14 15 15 15 14 14 15 16 15 14 10 3 2 1 2 2 1 1 3 6 3 4 6 5 3 3 4 2 2 0 2 2 2 1 2 2 4 4 1 3 4 2 2 0 2 3 2 1 1 3 4 3 4 3 2 2 4 3 3 2 2 2 2 2 2 1 2 2 5 7 4 10 3 3 6 7 9 12 12 3 8 7 9 9 6 7 8
13 13 14 14 14 14 14 14 14 14 13 6 3 2 4 3 2 1 1 3 3 3 4 2 3 4 3 4 4 2 4 3 2 2 0 1 3 4 3 3 3 0 1 3 5 6 3 2 3 2 4 3 2 5 6 6 4 5 2 3 3 2 3 1 0 2 1 3 1 0 9 3 9 12 9 8 5 4 12 3 8 10 9 8 7 7 9
12 12 12 13 14 14 14 14 13 12 13 8 5 3 3 3 4 3 2 2 2 2 2 3 6 5 5 3 2 3 3 5 5 5 3 1 2 3 3 4 1 0 3 3 3 2 2 3 1 3 4 3 2 2 2 2 3 2 2 2 2 4 2 2 2 1 1 3 5 9 8 15 14 6 3 5 2 5 5 3 3 2 7 9 9 9 9
11 11 11 12 12 12 13 14 13 13 12 9 2 2 4 3 2 1 0 2 1 3 1 2 1 2 3 1 2 3 3 2 5 4 3 3 2 2 4 5 4 5 4 4 1 1 1 1 1 1 3 2 0 1 1 1 3 1 2 2 1 4 3 2 3 2 4 3 5 4 2 6 3 2 6 6 5 3 3 2 3 2 9 11 9 9 11
10 10 10 10 11 12 12 14 13 12 13 10 5 3 5 2 1 1 1 2 1 2 2 2 3 2 1 0 2 3 1 1 1 1 3 3 2 3 3 4 3 5 3 3 1 1 0 2 1 1 1 1 1 0 1 2 3 5 4 5 6 4 4 4 6 2 1 2 4 3 5 5 3 5 7 11 7 5 5 2 3 3 9 10 10 10 10
9 9 9 9 10 10 11 12 12 11 10 11 4 3 2 3 3 2 1 2 2 2 3 1 1 3 3 2 4 3 0 0 0 1 2 3 2 1 2 1 2 3 2 3 3 1 1 0 0 1 2 1 1 1 1 1 1 4 7 5 6 3 2 2 1 2 3 3 4 7 3 4 2 6 9 11 11 7 1 5 2 5 10 10 9 7 9
8 8 8 8 8 9 10 11 12 12 10 8 4 1 4 5 2 2 3 1 2 2 3 4 5 3 2 3 2 2 1 1 1 1 2 3 1 1 2 1 1 2 2 2 1 2 1 1 0 0 1 1 0 2 1 2 0 2 0 1 2 1 1 2 6 4 5 6 7 5 6 2 4 7 9 11 10 3 4 7 1 7 10 9 7 7 7
8 7 8 8 7 8 9 9 10 12 10 9 4 1 2 3 4 3 2 1 2 2 6 6 2 0 1 1 1 1 2 4 4 2 1 3 1 2 0 1 1 0 3 3 2 1 1 1 0 1 1 1 1 1 0 0 2 1 0 1 2 2 0 1 2 2 5 5 5 8 6 1 4 4 9 6 4 4 5 1 4 7 9 10 6 6 4
8 7 7 7 7 7 8 8 10 10 9 8 4 1 6 4 4 2 3 1 0 2 6 3 1 1 1 0 2 1 3 2 2 3 2 2 2 1 4 1 3 2 1 2 0 1 2 1 2 1 0 1 1 3 0 3 1 2 1 2 2 3 1 2 2 2 0 0 4 4 7 1 5 7 8 2 1 2 2 4 4 4 6 8 8 5 5
7 7 7 7 7 6 6 7 8 8 9 6 4 2 4 3 1 0 4 3 1 2 5 3 1 3 3 4 6 5 3 5 3 3 5 3 3 3 1 3 3 1 2 2 2 1 2 1 1 1 3 3 2 1 2 1 3 4 3 3 3 2 1 2 2 2 2 3 4 5 1 1 2 3 3 3 3 5 4 2 6 4 3 5 7 6 5
7 6 7 7 6 6 6 6 7 8 8 5 3 1 0 4 3 2 0 4 2 4 6 6 3 9 11 10 10 9 10 9 7 5 4 2 1 3 3 1 2 2 1 2 1 1 1 1 0 0 1 1 1 2 3 1 2 1 0 3 1 5 5 4 2 2 3 5 6 4 2 2 2 2 4 6 8 3 2 2 4 6 5 4 6 9 8
7 7 7 7 6 5 6 5 6 7 7 7 3 0 2 3 5 5 3 2 3 3 4 5 4 6 7 10 11 11 11 9 6 3 5 4 1 0 3 1 1 1 1 1 5 4 3 3 3 2 0 2 5 1 1 4 2 1 3 4 2 0 1 0 1 5 4 8 12 12 7 3 7 5 5 6 4 3 1 2 5 4 5 5 7 8 10
6 6 6 7 6 6 5 5 6 7 7 4 1 0 1 2 4 3 2 0 1 5 5 1 1 3 2 4 6 4 4 4 7 6 4 7 3 1 1 1 2 1 1 3 5 4 2 2 3 2 1 3 3 2 2 3 4 3 1 2 1 1 1 2 3 1 3 5 0 1 2 6 5 9 7 3 3 3 4 5 4 6 6 7 7 8 9
7 6 6 7 7 7 5 5 6 7 5 4 3 3 3 3 2 1 1 1 2 1 2 6 4 11 6 5 6 6 3 2 1 6 6 6 7 6 6 3 4 6 5 5 2 5 1 2 1 1 3 3 5 4 3 3 4 3 2 5 1 2 3 0 4 2 4 8 6 6 4 6 8 6 2 6 9 10 9 7 7 8 7 7 8 7 9
7 6 6 6 7 7 7 6 6 7 7 5 4 1 1 4 2 4 2 1 1 1 4 4 7 7 6 12 11 8 10 11 8 7 9 9 7 8 8 3 3 3 4 3 5 5 3 1 2 2 3 3 2 2 3 8 3 2 6 7 7 5 5 3 3 3 6 8 11 8 9 10 5 2 4 6 7 10 12 12 11 10 10 8 7 5 6
6 6 6 6 7 7 7 6 6 6 7 6 4 4 4 5 4 2 1 0 1 2 1 5 6 5 4 11 13 10 10 8 4 6 7 5 6 5 6 7 7 4 7 4 1 3 1 2 3 4 4 4 5 4 2 1 4 3 3 4 2 4 5 2 2 3 5 5 6 1 5 8 5 6 7 8 8 9 12 12 11 10 9 8 8 8 6
7 6 6 6 6 7 6 6 6 6 5 4 3 5 4 5 4 3 3 3 3 3 3 5 6 10 8 10 6 4 9 5 6 4 8 9 8 8 8 9 8 6 4 5 1 2 3 5 6 4 2 1 2 4 1 1 1 1 4 6 6 7 7 7 6 6 6 6 4 2 5 8 11 10 7 8 9 9 11 12 12 11 10 10 10 9 7
6 6 5 5 6 6 5 5 6 6 5 1 3 6 7 9 9 7 6 4 3 2 3 6 6 4 3 8 12 11 8 8 6 8 6 11 10 9 9 10 9 7 5 3 3 3 3 5 2 3 2 3 3 3 2 3 3 6 8 6 8 7 9 12 12 6 5 4 5 4 3 6 8 9 11 10 9 9 10 11 11 11 11 11 11 9 10
6 6 5 5 6 6 5 4 4 6 3 2 3 2 3 3 3 6 7 6 4 1 2 3 6 4 3 4 9 9 7 6 6 8 8 8 10 5 1 3 3 4 3 4 5 4 3 1 1 2 1 4 2 2 2 3 4 7 5 7 11 5 6 8 8 9 5 4 4 4 4 7 8 9 9 9 9 9 10 11 11 12 11 11 12 11 9
6 5 5 5 5 6 6 5 4 5 4 3 2 0 2 0 1 2 5 6 5 3 2 2 7 6 6 4 5 11 12 5 3 1 3 7 5 4 2 6 2 4 3 1 1 2 2 4 3 2 1 5 4 3 4 3 4 3 5 7 8 9 8 9 8 8 6 4 4 3 3 5 6 7 10 8 8 9 11 11 13 13 14 13 11 10 10
6 6 5 5 6 6 6 6 7 6 4 6 6 3 1 1 1 4 5 4 3 2 2 4 4 1 3 3 3 2 5 8 3 3 2 2 1 1 4 7 5 1 3 4 2 1 3 2 4 5 4 5 6 2 2 4 7 8 3 7 7 9 9 7 7 8 6 5 3 3 6 7 5 5 7 8 11 10 9 10 12 12 14 11 10 9 8
6 6 5 5 7 6 6 6 7 6 5 5 12 19 20 19 19 14 3 3 1 2 1 2 3 3 3 5 7 8 3 1 2 1 2 1 4 2 2 2 3 1 3 3 3 4 3 4 3 5 5 5 2 3 4 8 11 6 6 9 9 9 9 8 8 7 8 7 7 8 6 5 4 4 6 8 9 10 10 10 10 11 11 11 11 10 10
7 5 5 6 5 5 4 6 5 5 5 5 7 7 6 12 12 13 5 2 1 1 1 2 3 2 5 3 4 7 2 1 1 1 1 1 2 2 3 2 2 3 3 6 2 1 1 2 4 4 3 4 3 1 5 9 8 7 7 7 7 7 7 6 6 7 7 7 7 9 8 5 4 4 5 6 8 9 9 8 10 12 11 10 9 10 10
5 4 5 3 0 2 4 6 3 3 3 4 6 7 5 7 12 11 10 5 3 1 1 2 1 4 4 3 2 6 1 0 1 0 2 1 0 2 2 2 1 3 2 1 2 4 4 5 5 5 6 4 4 5 7 8 5 6 6 6 5 6 3 3 5 7 6 6 6 6 6 4 4 4 5 5 7 8 8 8 9 9 10 9 10 11 10
5 3 1 3 4 5 3 3 3 3 3 4 5 4 4 2 8 6 6 1 1 1 2 1 2 4 3 5 3 3 1 2 1 1 1 1 1 0 1 2 2 5 1 4 4 4 5 3 4 4 4 4 7 7 9 8 6 7 8 9 9 10 9 10 7 7 6 6 7 6 5 4 4 5 4 5 6 7 7 8 10 9 11 10 11 11 10
2 2 3 5 2 1 2 3 3 5 5 3 3 3 10 11 6 4 2 2 1 1 2 2 5 6 4 5 2 3 2 3 2 2 1 1 3 0 1 1 5 2 2 4 4 4 3 2 3 3 4 7 8 8 9 6 7 8 7 7 9 8 5 5 5 5 4 5 6 6 5 5 5 4 4 5 6 6 7 7 9 10 11 12 12 12 11
3 3 2 1 1 1 1 3 4 5 7 5 5 2 2 3 3 1 1 2 1 2 3 2 7 3 1 3 6 2 1 2 1 1 2 0 2 2 1 2 2 1 4 3 3 3 3 2 4 4 6 8 8 3 6 9 8 7 7 7 8 7 6 5 5 5 5 3 4 4 4 4 4 4 4 5 5 5 6 7 8 8 8 10 10 11 11
2 2 1 2 0 1 0 2 1 11 6 1 1 0 1 0 1 3 3 2 1 3 3 4 6 3 4 4 7 2 2 2 2 2 2 1 2 2 1 1 1 2 2 2 2 4 2 1 2 2 6 4 4 7 5 6 6 7 7 7 7 7 7 6 6 7 8 8 8 7 7 6 4 5 4 4 5 5 5 6 7 8 9 9 10 12 12
2 1 1 1 2 2 0 2 1 3 1 0 0 1 1 2 2 1 2 1 1 1 2 5 4 5 7 8 5 5 2 4 4 4 3 1 1 1 0 1 1 1 2 2 1 2 2 2 2 2 6 5 7 4 7 7 7 6 6 5 6 7 6 7 5 3 4 4 5 5 5 5 4 4 4 4 4 5 6 5 6 8 8 9 11 10 12
2 2 2 1 2 3 2 1 1 1 0 1 1 1 1 1 2 2 1 2 2 2 2 3 2 2 3 4 5 7 2 2 1 1 2 3 1 0 1 2 2 2 2 3 0 1 0 1 2 4 7 5 4 6 7 7 7 6 5 6 7 7 7 6 5 4 5 5 4 4 5 5 5 4 4 4 3 4 4 5 6 7 8 9 10 10 9
0 0 1 3 5 4 2 1 1 0 1 1 0 2 1 2 0 1 0 1 2 1 2 1 4 3 3 6 6 3 2 0 1 1 0 1 2 2 2 1 1 1 2 1 0 1 1 2 2 3 5 4 4 7 8 8 7 7 6 7 7 6 6 6 5 4 6 8 6 5 5 5 5 4 4 3 3 2 2 4 5 6 7 7 8 8 9
9 6 2 1 2 1 2 0 2 2 1 0 1 2 1 0 0 1 1 1 0 1 3 1 3 1 3 1 3 1 2 1 1 0 0 2 0 0 1 1 1 2 3 1 0 1 2 2 2 5 5 3 5 7 8 8 7 7 7 7 7 7 7 6 6 6 7 8 7 6 5 5 6 5 4 3 2 1 1 2 3 4 5 7 7 8 9
3 1 0 1 0 2 1 1 1 1 1 0 1 1 1 1 2 2 3 3 1 3 3 2 3 1 6 0 1 1 1 2 1 1 1 0 1 2 1 2 2 1 0 1 1 2 2 2 2 6 7 3 2 5 7 6 6 6 5 5 7 7 5 5 5 5 5 4 4 4 5 4 3 2 3 3 3 3 2 2 3 3 4 5 6 7 8
1 0 0 0 1 2 1 2 0 1 2 3 1 0 1 1 5 4 6 2 2 5 4 5 4 2 6 2 0 1 1 1 0 1 1 0 0 1 2 3 2 1 1 2 1 2 1 3 5 6 7 6 5 3 1 1 6 8 7 5 5 6 7 8 6 5 4 4 5 5 4 3 2 2 3 4 3 2 2 0 2 3 4 5 5 6 7
0 1 1 2 3 2 1 1 0 1 2 0 1 2 3 6 6 8 5 1 3 5 6 7 5 3 6 2 2 1 0 1 0 0 0 0 1 2 1 0 1 1 1 0 1 1 2 4 5 7 5 4 4 3 1 1 3 5 7 7 5 6 8 8 7 6 5 5 5 5 4 3 3 3 3 2 2 2 1 1 2 2 3 4 5 6 6
1 1 0 1 1 3 1 0 2 2 1 1 4 7 7 8 6 6 2 2 5 7 6 4 5 4 3 2 0 1 1 0 1 0 1 0 1 2 0 1 1 0 0 1 1 3 5 6 7 7 7 4 3 2 2 2 4 6 7 6 5 6 8 8 7 6 5 6 5 5 4 3 4 4 3 3 2 1 2 2 1 1 2 3 3 3 4
1 2 1 0 3 1 1 3 1 1 1 3 4 4 4 2 1 4 4 4 6 2 3 3 5 4 2 2 1 1 0 0 1 1 0 1 1 0 1 1 0 1 0 0 2 3 6 6 7 8 6 5 6 3 4 6 6 6 7 7 6 7 8 8 7 7 7 7 6 5 4 4 5 5 4 3 2 1 2 3 1 0 1 2 3 3 4
1 0 1 2 2 1 2 2 2 3 5 4 1 0 1 2 4 6 6 2 2 5 4 1 2 0 2 2 0 0 1 1 1 1 1 1 1 0 1 1 2 2 0 0 6 5 7 9 8 9 9 7 7 6 6 7 6 4 7 8 8 6 8 9 8 8 7 6 6 5 5 4 4 4 4 2 1 0 1 3 3 1 0 1 2 3 3
1 1 1 0 2 4 6 4 1 2 4 3 2 3 2 2 4 5 1 2 2 2 4 1 0 1 2 1 1 1 0 1 1 0 1 1 1 1 1 2 1 2 5 5 5 7 7 8 8 9 9 9 7 5 6 5 3 6 5 7 6 7 9 9 9 8 7 6 6 6 5 5 4 4 4 4 2 0 2 4 3 2 1 1 2 3 4
0 1 3 4 5 5 1 3 2 5 7 5 3 3 1 3 2 3 1 1 3 4 2 0 1 1 2 2 1 1 1 0 1 1 1 0 1 1 1 3 4 4 6 6 7 7 7 7 7 8 9 7 4 3 3 3 2 2 5 2 5 8 7 7 7 7 6 6 6 8 7 5 5 5 4 3 3 3 3 3 3 3 3 2 2 2 3
0 0 3 4 6 7 5 1 0 4 6 6 3 3 0 2 2 4 1 1 2 3 3 1 1 1 1 1 1 1 2 1 1 1 2 1 1 2 3 4 6 8 7 7 8 9 8 7 6 8 8 8 7 1 2 1 2 4 4 6 5 6 8 8 8 7 7 6 6 6 4 4 4 3 3 4 3 2 1 1 3 4 3 2 2 2 2
Wind_Direction
349 345 345 344 343 342 341 343 346 353 355 16 354 342 21 34 251 267 292 305 85 62 45 358 29 90 128 79 43 29 48 26 26 36 13 45 358 41 57 38 46 28 23 33 37 26 82 34 71 99 82 66 51 359 18 8 21 74 8 348 339 344 64 345 299 290 277 302 197 103 54 29 20 26 16 4 359 347 316 263 268 281 329 26 349 279 249
348 345 347 345 345 343 341 341 347 354 14 5 306 44 65 304 289 315 310 22 83 67 52 35 10 23 69 78 80 46 59 38 42 34 22 30 13 39 39 49 43 64 30 39 33 13 105 40 59 61 23 93 36 31 23 9 38 27 291 91 304 28 326 85 342 343 325 30 2 360 19 46 54 327 340 343 325 341 329 303 26 359 148 72 326 253 5
348 347 348 347 346 344 340 340 344 355 356 358 217 43 293 287 263 247 301 352 50 82 117 113 64 43 48 51 60 48 42 18 47 36 29 15 46 18 57 53 50 48 32 56 50 41 57 148 35 76 46 49 27 21 20 9 24 13 66 53 347 104 318 78 83 360 310 305 24 359 339 336 325 313 324 332 344 345 348 15 334 31 302 17 190 284 287
350 349 349 348 348 345 342 340 345 350 358 352 120 206 56 20 30 314 337 355 18 31 360 85 84 61 66 49 31 30 45 8 29 14 52 21 63 53 63 63 64 43 39 39 33 19 31 66 360 50 49 6 37 5 14 10 15 31 20 32 352 111 52 108 146 155 210 230 246 222 270 298 300 315 322 321 338 326 321 281 351 310 308 318 264 170 320
353 352 351 349 348 347 343 343 345 349 354 11 128 43 112 216 62 355 340 327 21 21 17 42 46 39 82 84 357 45 40 12 20 359 61 12 33 61 34 43 45 33 50 40 35 16 29 26 49 17 21 330 23 345 32 19 45 29 18 3 16 57 25 268 181 206 217 236 258 272 291 289 295 305 311 309 316 319 319 322 290 287 357 307 253 21 335
355 355 354 352 350 348 347 345 348 350 350 8 132 49 14 51 301 81 215 141 331 17 9 52 53 39 53 56 13 57 42 31 20 351 27 27 23 46 10 54 81 85 83 56 42 354 44 36 26 335 10 4 354 7 356 54 34 38 2 7 79 107 36 287 312 299 286 285 302 323 318 303 297 299 302 312 316 314 311 288 295 317 266 259 296 328 317
356 356 355 354 350 348 349 349 351 354 345 354 90 73 335 91 319 328 339 71 335 19 64 63 71 48 28 97 40 62 57 44 13 358 343 23 3 34 62 17 24 94 93 96 66 11 54 356 344 43 347 19 346 354 340 338 28 79 8 10 73 75 240 282 356 320 327 328 328 330 316 311 312 308 311 294 298 295 292 289 283 277 266 263 282 295 304
355 356 355 355 351 350 351 351 355 356 348 343 73 51 62 20 20 325 354 29 351 41 46 39 55 56 9 71 1 51 55 40 352 2 36 32 8 5 61 32 25 48 70 79 72 20 99 125 19 341 61 338 21 287 213 247 331 54 47 98 327 101 272 2 331 360 313 321 324 320 321 324 315 319 310 303 292 286 288 297 290 279 282 277 272 322 336
355 356 356 357 352 352 353 355 1 360 352 49 41 72 37 277 208 207 346 360 18 42 31 63 70 55 1 56 351 58 37 37 339 18 27 52 65 41 38 46 50 28 65 61 63 42 41 342 290 250 116 254 223 89 275 26 318 339 327 54 291 91 256 22 49 29 306 333 340 338 338 326 311 311 302 281 275 275 283 285 301 287 281 280 290 312 316
354 355 357 357 355 354 355 358 6 9 357 77 31 42 314 315 251 273 142 67 339 65 6 32 60 53 311 109 36 45 33 348 19 10 352 47 77 40 22 12 83 28 67 72 215 290 272 265 261 262 256 227 256 220 227 245 217 242 213 241 101 149 73 19 351 351 264 331 352 342 332 341 320 293 207 304 318 308 313 315 327 344 340 354 296 219 223
353 355 355 357 357 357 356 358 9 18 23 49 31 21 347 34 329 352 34 78 340 31 79 28 82 136 131 29 64 41 30 358 70 95 310 356 338 342 33 41 92 108 46 314 273 243 271 266 282 268 249 277 276 274 278 306 264 197 215 107 228 145 127 188 180 137 257 3 353 348 358 319 246 150 336 344 338 325 316 304 6 358 359 279 244 288 316
352 354 355 356 357 359 357 355 3 24 47 23 174 333 327 321 49 77 64 78 8 350 72 50 44 92 81 59 53 77 5 343 18 155 27 324 300 318 346 74 84 62 265 271 6 5 319 271 311 347 332 300 274 274 237 257 268 224 189 188 199 191 125 201 173 125 285 352 20 357 301 251 243 354 315 322 307 299 292 301 21 3 351 349 341 348 349
351 354 354 355 356 359 358 354 0 13 20 18 60 37 303 341 95 62 103 106 55 360 56 343 11 57 62 58 22 12 349 336 68 72 13 18 339 351 2 52 74 230 356 33 33 40 38 305 323 296 300 339 345 23 343 315 303 297 245 161 131 169 159 178 5 150 22 45 71 302 240 264 315 302 306 303 298 343 354 12 15 350 339 342 336 343 342
349 352 353 354 356 358 356 353 356 8 16 18 31 330 294 3 56 35 54 86 343 304 152 55 14 35 32 37 25 344 20 12 6 17 5 297 7 19 35 59 138 291 32 65 60 76 12 31 17 18 330 9 359 21 292 318 273 255 298 292 186 161 131 123 260 115 189 199 172 232 314 315 297 302 55 43 42 338 12 313 262 323 318 345 330 336 342
347 351 351 353 355 356 355 352 353 359 15 12 30 335 345 2 75 126 241 94 130 293 44 108 273 60 51 343 72 41 21 328 35 336 322 341 37 47 49 13 17 26 58 71 27 38 146 98 43 58 331 50 36 268 309 36 311 312 286 305 135 145 168 222 143 238 161 213 278 313 347 266 313 54 5 11 351 311 303 236 264 357 343 343 339 341 341
343 348 350 351 354 356 356 352 350 355 10 13 56 12 299 322 55 92 119 136 112 50 299 197 156 131 113 290 308 127 17 32 333 349 358 332 5 347 46 22 24 76 55 79 107 104 113 107 201 99 203 185 228 273 309 356 331 313 359 31 46 21 90 134 149 206 98 206 209 213 218 238 107 336 335 328 324 311 253 263 250 5 339 332 348 342 344
340 342 346 348 351 354 355 352 349 352 9 30 20 349 293 336 39 38 62 18 83 198 261 313 213 109 79 351 17 24 66 140 181 82 319 319 289 2 319 353 16 47 76 72 6 60 33 21 318 150 273 229 111 214 286 55 357 322 332 17 28 33 16 40 56 223 206 215 238 248 216 259 298 328 334 323 313 302 37 331 242 330 328 320 337 351 340
334 334 340 343 348 350 353 352 348 345 358 9 38 37 289 309 1 83 52 101 88 302 256 28 9 83 155 188 169 235 99 36 46 100 156 239 278 31 284 2 13 335 87 86 49 60 57 85 113 124 215 309 68 80 236 186 227 228 280 348 313 354 342 100 208 205 234 233 263 285 281 291 18 339 327 322 311 286 269 249 350 320 312 316 321 344 337
329 329 329 337 342 346 349 350 346 344 351 3 354 56 282 285 343 75 121 42 73 252 278 332 276 150 282 300 197 186 184 177 163 125 265 2 254 221 158 76 109 34 2 121 72 126 124 265 42 118 131 304 35 169 223 64 242 282 41 24 3 335 12 234 104 188 212 219 239 248 269 254 342 316 334 300 318 253 222 29 294 278 297 303 309 318 321
322 323 325 326 335 341 346 347 342 336 348 3 39 167 256 296 279 131 104 84 69 254 285 266 3 271 311 346 303 338 330 10 165 143 165 200 264 36 31 12 321 80 13 78 77 190 106 206 215 168 241 217 246 174 77 254 232 181 178 170 153 208 136 233 192 235 342 75 260 275 272 191 356 335 340 57 97 228 37 299 286 273 283 297 298 292 279
319 316 319 323 325 333 338 342 336 335 336 360 24 49 345 302 280 324 109 131 114 347 304 277 25 310 297 250 226 225 212 217 222 272 232 183 201 100 164 203 226 139 203 142 148 244 172 231 218 170 201 145 223 67 202 210 317 280 156 179 206 182 101 256 278 164 181 211 208 224 186 266 299 46 274 296 281 286 307 322 295 290 281 290 294 294 296
315 310 312 317 321 319 329 332 330 326 326 341 4 90 15 286 351 30 54 106 133 197 228 268 279 278 270 258 252 235 223 225 220 200 156 172 233 155 194 178 199 148 196 128 78 335 359 201 34 359 171 268 61 193 177 89 266 260 145 93 318 203 180 178 178 226 172 213 228 250 243 272 251 248 241 268 275 269 252 234 259 289 302 302 298 302 305
312 305 303 308 315 318 317 320 322 320 314 319 348 127 198 318 316 331 340 320 294 286 272 281 285 266 269 264 247 231 230 217 223 174 150 117 312 228 160 168 243 182 139 114 170 163 193 131 218 173 331 196 177 225 299 163 216 211 184 223 176 249 164 121 82 269 273 273 261 273 291 325 312 296 279 275 282 276 277 292 305 285 287 295 294 297 297
310 303 297 297 304 312 312 314 311 308 314 315 170 76 314 280 279 337 347 213 141 298 306 260 23 316 231 270 300 271 232 211 204 206 174 127 136 274 305 203 150 120 160 216 174 140 196 134 206 135 183 232 96 142 172 276 229 198 130 295 220 248 180 139 191 252 23 288 44 211 282 299 292 296 294 308 311 304 304 299 285 289 292 297 296 290 291
305 298 292 291 294 299 307 305 304 297 301 303 300 271 255 302 247 208 221 20 334 55 241 309 282 246 261 283 304 289 233 274 263 160 166 153 152 157 190 215 166 161 193 182 105 81 76 126 226 166 189 254 126 240 214 169 281 152 187 250 169 281 180 150 221 213 204 254 268 276 281 268 275 267 304 324 321 315 306 297 291 285 283 281 283 290 291
301 293 288 290 288 291 296 303 298 292 286 272 264 264 231 235 318 6 311 204 191 191 275 273 270 309 344 341 312 286 300 295 271 195 180 186 176 164 149 128 75 81 120 132 106 144 158 162 176 187 157 276 123 173 205 197 184 167 172 223 191 155 120 236 172 206 254 283 283 291 310 296 276 276 302 312 309 305 302 302 301 295 289 285 279 277 285
300 290 287 285 289 289 289 292 293 286 280 267 252 245 245 270 256 234 211 161 21 336 203 255 273 288 347 298 282 291 278 272 259 194 197 165 156 139 137 144 140 130 135 150 130 140 124 165 155 227 178 229 160 206 164 217 156 164 221 252 167 120 215 187 82 286 270 241 259 25 329 306 286 279 290 303 302 299 295 295 291 286 286 288 286 282 278
296 289 282 285 288 288 287 282 277 275 264 262 267 272 263 257 239 215 236 250 181 201 253 287 302 292 306 275 271 293 297 275 239 217 170 178 163 164 162 158 146 137 152 138 167 175 165 178 226 219 181 206 125 276 176 110 94 264 209 222 180 182 201 154 187 185 236 237 232 213 238 264 267 283 294 294 295 292 293 291 292 290 286 284 283 284 279
298 288 284 282 284 286 284 277 275 276 271 197 270 267 259 239 239 232 236 255 235 259 269 275 275 309 292 294 304 294 279 269 241 223 181 170 172 178 181 174 168 161 144 148 160 159 172 213 180 168 185 210 121 242 123 202 193 223 224 194 185 217 175 181 198 191 241 222 248 250 222 246 281 295 298 293 291 288 290 295 293 289 286 285 281 274 277
299 290 287 285 282 282 280 274 263 269 237 199 261 287 333 331 177 204 208 215 208 151 278 312 309 271 299 310 290 291 288 289 260 220 218 157 175 168 127 173 185 164 148 170 160 201 189 155 252 274 212 136 161 222 198 201 209 243 228 203 205 185 183 197 175 170 214 214 206 216 231 260 270 280 280 287 289 293 298 298 299 297 292 286 280 279 267
297 292 283 286 284 280 273 262 249 242 187 219 217 28 75 342 283 149 189 206 205 159 236 234 256 307 300 242 249 278 290 299 279 220 106 82 142 124 81 46 6 164 195 11 127 188 146 206 148 242 187 184 170 208 210 189 246 275 232 193 192 187 192 203 199 202 194 204 204 218 249 260 274 293 290 289 296 299 298 301 305 306 302 297 288 282 275
296 289 287 284 284 278 266 251 241 222 194 215 202 172 155 172 243 325 345 327 163 162 239 303 292 265 276 287 260 265 290 283 262 103 89 129 31 79 110 171 205 180 179 165 188 110 218 182 183 198 158 193 181 259 211 218 232 245 206 197 200 197 198 199 200 213 212 211 192 268 277 276 264 253 275 298 299 296 292 298 304 306 308 304 296 292 286
297 294 288 291 283 276 260 245 239 226 219 262 292 292 281 267 262 264 276 296 176 216 167 239 239 302 282 266 297 291 245 198 32 13 145 176 146 144 152 163 144 148 180 126 196 211 200 167 150 211 220 122 176 218 217 227 235 223 194 197 199 197 201 205 202 200 202 200 179 206 231 227 239 251 269 285 292 295 306 315 315 316 313 314 315 316 315
298 289 295 298 286 265 237 227 222 246 262 282 281 245 245 225 231 234 202 209 208 202 122 221 288 259 270 318 312 283 344 156 240 113 249 332 151 123 145 150 192 182 197 191 229 182 259 152 179 186 128 214 194 208 239 244 227 218 204 200 193 189 192 195 196 200 203 201 199 209 218 223 240 269 287 287 292 296 298 305 321 327 322 314 314 314 310
286 305 328 339 307 170 180 181 168 194 240 242 252 247 252 208 189 187 169 173 144 248 214 247 224 280 307 309 281 274 324 80 250 197 169 255 44 156 150 120 133 198 241 117 247 204 205 213 146 174 213 137 170 223 235 251 237 205 184 187 182 159 132 177 230 212 206 202 198 213 220 229 244 278 277 285 296 301 306 312 317 319 323 319 316 314 316
313 301 347 86 123 142 125 171 215 198 236 234 229 300 317 234 171 149 157 218 47 195 228 239 198 232 222 269 280 294 45 38 333 36 329 52 345 100 102 125 216 230 145 179 230 173 209 155 129 230 152 179 223 206 225 220 211 197 183 180 180 167 184 189 193 199 211 200 198 209 214 218 218 247 272 282 292 300 307 311 319 321 323 322 324 319 324
328 79 103 92 129 151 199 211 178 198 216 232 166 121 81 85 68 84 83 334 258 95 238 298 273 240 203 260 288 291 8 302 17 359 296 148 229 164 130 120 215 224 205 217 212 215 223 142 191 201 204 209 234 210 217 211 197 196 196 186 181 185 181 189 183 162 177 184 193 211 213 214 229 258 281 288 294 300 315 323 325 328 328 326 328 329 324
114 150 183 167 216 310 241 205 208 200 143 130 148 65 347 16 94 90 151 216 233 191 229 180 248 271 176 224 252 241 280 261 97 238 301 39 343 276 164 217 227 221 249 223 226 148 123 168 219 216 257 243 253 233 217 216 207 181 164 162 170 174 171 173 158 134 148 179 223 225 213 219 238 259 264 279 285 303 311 310 311 315 317 324 321 325 328
190 186 210 232 271 264 324 295 74 113 97 351 33 57 283 221 158 211 190 193 200 215 173 205 248 196 199 240 261 296 220 189 316 216 232 218 125 294 95 199 299 56 282 293 240 140 218 254 247 232 262 241 215 230 206 180 158 157 156 162 159 168 166 172 173 171 175 187 194 188 177 189 211 250 261 273 290 291 297 314 321 325 327 327 331 339 331
220 208 218 187 205 260 245 324 47 110 60 89 254 126 226 156 122 240 130 130 239 205 156 239 216 208 186 218 252 276 148 132 201 235 222 265 135 209 251 149 242 242 260 219 245 80 137 233 231 224 275 247 232 198 164 159 152 163 160 159 149 160 162 172 187 187 170 170 160 167 175 182 190 208 238 259 278 295 303 310 328 328 337 335 343 346 342
206 232 257 268 330 341 345 73 4 46 232 264 205 222 207 258 210 213 191 243 233 253 191 235 221 198 173 220 205 243 262 116 65 123 166 218 177 132 199 212 142 151 248 261 256 164 259 303 248 203 242 231 192 171 157 151 157 161 162 154 154 158 166 171 178 171 139 135 149 167 188 190 204 214 225 238 262 275 286 302 326 333 337 338 345 340 331
72 156 295 300 261 260 286 187 157 207 248 210 199 273 216 215 138 9 149 191 256 287 277 257 290 264 229 207 223 199 284 165 119 222 93 269 175 166 240 186 113 216 243 264 60 231 188 227 259 266 261 242 188 160 157 159 165 158 169 156 156 157 161 165 179 187 155 154 171 183 193 192 200 213 216 222 245 270 301 308 304 323 334 338 343 341 349
304 272 161 279 284 222 163 36 229 161 151 284 52 320 290 330 240 230 270 259 322 184 244 263 245 252 262 232 299 167 201 183 107 324 176 244 339 104 288 268 207 240 252 175 238 227 225 245 260 256 263 234 194 171 168 167 167 164 169 155 157 165 167 164 167 163 158 161 179 188 188 196 210 216 206 214 217 256 306 313 328 317 329 338 345 352 357
247 185 108 231 54 284 107 322 221 68 331 165 129 231 290 346 312 359 295 258 214 265 215 196 252 276 297 313 202 288 10 360 51 119 237 253 89 67 312 266 246 275 342 261 220 193 230 237 246 309 302 271 196 178 169 161 159 152 158 164 158 166 160 148 139 125 158 169 163 161 165 187 208 201 181 199 200 203 240 274 310 343 338 340 351 1 358
43 78 328 23 318 264 61 309 285 144 219 256 168 118 99 336 296 261 257 248 172 235 265 262 266 200 258 268 34 261 129 207 58 179 252 102 334 177 189 248 228 220 275 278 337 333 339 309 324 338 351 357 352 352 321 189 157 158 161 166 163 159 155 148 152 150 160 146 149 139 146 157 128 103 146 182 212 189 195 254 305 335 341 346 350 4 7
134 169 105 77 302 298 127 247 145 332 290 120 118 81 303 235 209 256 248 194 254 274 278 273 278 267 278 209 153 223 193 106 44 295 18 47 67 278 240 230 18 334 267 142 35 343 285 288 322 321 308 333 311 297 348 265 204 156 151 170 187 160 163 152 157 154 151 139 146 135 146 137 134 111 89 112 155 189 207 271 316 339 343 358 4 9 359
349 323 120 139 152 268 141 188 248 203 172 224 200 169 208 240 231 230 230 187 235 245 263 268 257 223 246 274 299 338 45 82 172 298 65 23 233 282 80 92 310 300 18 355 300 282 310 316 313 307 295 298 289 301 329 276 226 185 169 166 173 161 163 158 157 151 155 144 137 138 146 148 131 128 113 77 51 102 160 181 203 320 340 357 357 358 16
227 250 98 180 243 220 180 251 120 106 230 217 244 199 208 189 329 293 255 215 233 256 278 324 328 347 327 296 92 200 209 28 72 315 142 273 292 360 344 6 26 49 132 196 310 340 304 281 275 281 276 262 265 238 224 255 234 206 174 167 168 161 162 159 152 150 146 141 143 146 153 128 117 125 133 136 108 79 150 159 154 148 353 3 16 16 32
243 104 153 214 216 278 264 268 355 332 301 304 256 127 330 308 271 269 270 250 269 279 242 187 236 81 283 256 171 94 348 293 79 263 65 24 77 295 307 289 329 328 274 309 318 303 287 298 294 291 288 275 238 215 206 241 292 251 178 165 174 171 159 157 154 155 152 149 150 151 149 144 134 137 146 124 104 6 167 141 128 129 330 360 24 40 36
123 334 321 68 340 304 265 290 44 312 270 304 330 298 268 272 287 274 240 326 268 299 330 336 360 109 248 56 327 355 42 298 153 21 45 21 342 309 335 302 331 298 307 328 308 302 302 300 300 302 299 293 268 212 196 188 225 266 214 176 152 145 153 157 161 161 157 157 156 151 146 138 148 154 147 161 182 166 98 130 142 144 104 38 40 41 57
239 155 228 190 188 231 7 312 294 302 315 291 272 275 283 294 249 272 236 217 347 10 40 38 267 71 4 16 33 19 282 256 38 51 135 245 320 9 358 306 296 301 302 292 287 292 301 308 314 316 312 312 316 351 350 352 59 62 299 273 155 143 148 152 154 144 142 141 138 136 144 160 169 172 175 155 111 84 84 117 139 127 106 68 43 46 49
118 238 257 245 224 232 216 216 26 241 249 261 270 249 50 284 263 269 219 81 36 63 334 310 63 25 48 10 263 228 304 29 26 39 30 20 20 333 309 296 310 319 313 311 319 319 317 313 312 311 313 302 301 354 57 46 67 70 38 291 244 161 146 142 135 130 125 115 114 119 126 125 124 123 140 121 89 77 70 102 125 122 97 91 74 58 57